MPEC 2008-J46 : 2008 JT19

The following Minor Planet Electronic Circular may be linked-to from your own Web pages, but must not otherwise be redistributed electronically.


Read MPEC 2008-J45 Read MPEC 2008-J47


M.P.E.C. 2008-J46                                Issued 2008 May 8, 21:55 UT

     The Minor Planet Electronic Circulars contain information on unusual
         minor planets and routine data on comets.  They are published
   on behalf of Commission 20 of the International Astronomical Union by the
          Minor Planet Center, Smithsonian Astrophysical Observatory,
                          Cambridge, MA 02138, U.S.A.

             Prepared using the Tamkin Foundation Computer Network

                              MPC@CFA.HARVARD.EDU
          URL http://www.cfa.harvard.edu/iau/mpc.html  ISSN 1523-6714

                                   2008 JT19

Observations:
     K08J19T* C2008 05 07.19164 15 21 40.82 -00 07 21.9          21.0 V EJ046691
     K08J19T  C2008 05 07.20693 15 21 39.79 -00 07 07.9          21.0 V EJ046691
     K08J19T  C2008 05 07.22222 15 21 38.70 -00 06 53.4          20.7 V EJ046691
     K08J19T  C2008 05 07.99958 15 20 47.19 +00 05 12.2                 EJ046J95
     K08J19T  C2008 05 08.02584 15 20 45.39 +00 05 35.5          20.7 R EJ046J95
     K08J19T 4C2008 05 08.34652 15 20 25.00 +00 10 35.5          19.9 R EJ046F65
     K08J19T 4C2008 05 08.35817 15 20 24.18 +00 10 45.9          19.9 R EJ046F65
     K08J19T 4C2008 05 08.37240 15 20 23.21 +00 10 58.9          20.1 R EJ046F65
     K08J19T  C2008 05 08.88018 15 19 50.23 +00 18 29.8                 EJ046246
     K08J19T  C2008 05 08.88230 15 19 50.10 +00 18 31.8                 EJ046246
     K08J19T  C2008 05 08.88777 15 19 49.63 +00 18 36.4                 EJ046246
     K08J19T  C2008 05 08.88995 15 19 49.52 +00 18 36.8                 EJ046246
     K08J19T  C2008 05 08.89211 15 19 49.30 +00 18 39.7                 EJ046246
     K08J19T  C2008 05 08.89552 15 19 49.10 +00 18 43.1                 EJ046246

Observer details:
246 Klet Observatory-KLENOT.  Observers J. Ticha, M. Tichy.  Measurer M. Tichy.
    1.06-m KLENOT Telescope + CCD.
691 Steward Observatory, Kitt Peak.  Observer J. V. Scotti.  0.9-m f/3
    reflector + CCD.
F65 Haleakala-Faulkes Telescope North.  Observer J. Bedient.  2.0-m
    Ritchey-Chretien + CCD.
J95 Great Shefford.  Observer P. Birtwhistle.  0.40-m f/6.0 Schmidt-Cassegrain
    + CCD.

Orbital elements:
2008 JT19                                                Earth MOID = 0.2641 AU
Epoch 2008 May 14.0 TT = JDT 2454600.5                  MPC
M  43.98545              (2000.0)            P               Q
n   0.35322335     Peri.  304.22596     -0.79142196     -0.60636448
a   1.9819975      Node   198.82661     +0.60935479     -0.77260880
e   0.4009102      Incl.   13.85700     +0.04835311     -0.18814291
P   2.79           H   19.9           G   0.15           U   9
Residuals in seconds of arc
080507 691  0.2-  0.4+    080508 F65  0.0   0.1+    080508 246  0.5-  0.3+
080507 691  0.3+  0.2-    080508 F65  0.1-  0.1-    080508 246  0.1+  1.2-
080507 691  0.0   0.2-    080508 F65  0.3+  0.0     080508 246  1.0-  0.3-
080507 J95  0.1-  0.5+    080508 246  0.8+  0.4+    080508 246  0.5-  0.1+
080508 J95  0.1+  0.4-    080508 246  1.0+  0.6+

Ephemeris:
2008 JT19                a,e,i = 1.98, 0.40, 14                  q = 1.1874
Date    TT    R. A. (2000) Decl.     Delta      r     Elong.  Phase     V
2008 05 04    15 25.23   -01 01.1    0.600    1.590   162.1    11.2    20.5
2008 05 06    15 22.99   -00 26.6    0.610    1.601   162.3    11.1    20.5
2008 05 08    15 20.79   +00 05.4    0.620    1.611   162.1    11.1    20.6
2008 05 10    15 18.63   +00 34.8    0.632    1.622   161.6    11.3    20.7
2008 05 12    15 16.55   +01 01.7    0.644    1.633   160.8    11.7    20.7
2008 05 14    15 14.55   +01 26.0    0.657    1.643   159.8    12.3    20.8
2008 05 16    15 12.64   +01 47.8    0.671    1.654   158.5    12.9    20.9
2008 05 18    15 10.83   +02 07.1    0.685    1.665   157.2    13.6    21.0
2008 05 20    15 09.14   +02 23.9    0.701    1.675   155.7    14.4    21.1
2008 05 22    15 07.56   +02 38.4    0.716    1.686   154.1    15.2    21.2
2008 05 24    15 06.11   +02 50.6    0.733    1.697   152.4    16.0    21.2
2008 05 26    15 04.79   +03 00.6    0.750    1.707   150.7    16.9    21.3
2008 05 28    15 03.60   +03 08.4    0.768    1.718   149.0    17.7    21.4
2008 05 30    15 02.54   +03 14.3    0.786    1.729   147.3    18.5    21.5
2008 06 01    15 01.62   +03 18.2    0.805    1.739   145.6    19.2    21.6
2008 06 03    15 00.84   +03 20.3    0.825    1.750   143.9    20.0    21.7
2008 06 05    15 00.20   +03 20.7    0.845    1.761   142.2    20.7    21.8
2008 06 07    14 59.70   +03 19.4    0.866    1.771   140.5    21.4    21.9
2008 06 09    14 59.33   +03 16.7    0.888    1.782   138.8    22.0    22.0
2008 06 11    14 59.10   +03 12.5    0.909    1.792   137.1    22.7    22.0
2008 06 13    14 59.01   +03 07.0    0.932    1.803   135.5    23.3    22.1

Timothy B. Spahr             (C) Copyright 2008 MPC           M.P.E.C. 2008-J46

Read MPEC 2008-J45 Read MPEC 2008-J47


Our Web policy. Index to the CBAT/MPC/ICQ pages.

MPC

Valid HTML 4.01!